sat.trackr.live / text

‹ back to catalog

STARLINK-32159

NORAD 60293 · 2024-132R

PAYLOAD ACTIVE UNKNOWN

§ Identity

Operator
Country
US
Launch date
2024-07-28
Launch site
AFETR
Launch vehicle
Mass (kg)
RCS (m²)

Purposes: comms

External: N2YO · Heavens-Above · Gunter

§ Orbital elements

Epoch: 2026-05-25T00:52:57.709920Z

Period
94.11 min
Inclination
53.1607°
Eccentricity
0.0001248
Mean motion
15.30193239 rev/d
Perigee alt
474.4 km
Apogee alt
476.1 km
Semi-major
6,853.4 km
B*
3.3845e-5
RAAN
57.5072°
Arg perigee
82.0990°
Mean anomaly
278.0152°
Rev number
10,325

§ Raw data

STARLINK-321591 60293U 24132R   26145.03677905  .00000643  00000+0  33845-4 0  99962 60293  53.1607  57.5072 0001248  82.0990 278.0152 15.30193239103255

JSON: /api/v1/satellites/60293 · /tle

For live sub-satellite position, see the globe view (requires WebGL).

§ Visibility from observer

Set your observer location to see the next 7 days of passes ≥ 10°. The values pass through the URL so the page stays shareable.

No JS? Fill the form by hand. The geolocation button needs JavaScript.